EW5543 Weather Reports


time (UTC)temp
C
wind
direction
speed
KPH
gust
KPH
rain 1hr
cm
rain 24hr
cm
rain mn
cm
humidity
%
barometer
mb
20260507000030 6 224 1.6 6.4 0.00 1.98 1.24 95 1011.2
20260506234528 6 242 3.2 9.7 0.00 1.98 1.24 95 1011.0
20260506233027 6 264 1.6 6.4 0.00 1.98 1.24 95 1010.9
20260506231525 6 280 3.2 6.4 0.00 1.98 1.24 94 1010.7
20260506230024 6 271 3.2 6.4 0.00 1.98 1.24 94 1010.2
20260506224526 6 289 1.6 4.8 0.00 1.98 1.24 95 1010.1
20260506223023 6 287 3.2 4.8 0.00 1.98 1.24 95 1010.4
20260506221522 6 250 3.2 8.0 0.00 1.98 1.24 95 1010.5
20260506220021 6 253 4.8 9.7 0.00 1.98 1.24 96 1010.6
20260506214519 6 273 4.8 11.3 0.00 1.98 1.24 96 1010.5
20260506213017 6 312 4.8 11.3 0.00 1.98 1.24 96 1010.2
20260506211520 6 283 4.8 11.3 0.00 1.98 1.24 97 1010.2
20260506210017 6 254 3.2 12.9 0.00 2.01 1.24 97 1010.2
20260506204516 6 281 6.4 12.9 0.00 2.01 1.24 97 1009.9
20260506203013 6 281 4.8 12.9 0.00 2.01 1.24 98 1009.8
20260506201514 6 292 6.4 16.1 0.00 2.01 1.24 98 1009.5
20260506200012 6 302 4.8 14.5 0.00 2.01 1.24 98 1009.5
20260506194511 6 263 4.8 14.5 0.00 2.01 1.24 98 1009.6
20260506193010 6 307 8.0 14.5 0.00 2.01 1.24 98 1009.6
20260506191510 6 294 4.8 12.9 0.00 2.01 1.24 98 1009.4
20260506190008 6 311 4.8 12.9 0.03 2.11 1.24 99 1009.1
20260506184508 6 314 6.4 12.9 0.03 2.11 1.24 98 1009.0
20260506183008 6 355 6.4 14.5 0.03 2.11 1.24 98 1009.1
20260506181504 6 328 9.7 17.7 0.03 2.11 1.24 98 1008.7
20260506180005 6 279 4.8 12.9 0.00 2.39 1.22 98 1008.5
20260506174502 7 285 4.8 8.0 0.00 2.39 1.22 98 1008.3
20260506173002 7 304 3.2 12.9 0.00 2.39 1.22 98 1008.2
20260506171620 7 293 3.2 8.0 0.03 2.39 1.22 99 1008.1
20260506170100 7 315 4.8 12.9 0.03 2.39 1.22 98 1008.0
20260506164607 6 355 0.0 6.4 0.05 2.39 1.22 99 1008.0
20260506163106 6 277 3.2 8.0 0.08 2.39 1.22 99 1008.2
20260506161639 6 13 1.6 8.0 0.05 2.36 1.19 99 1008.1
20260506160108 6 348 0.0 4.8 0.05 2.36 1.19 99 1008.3
20260506154600 6 335 1.6 6.4 0.03 2.34 1.17 99 1008.3
20260506153058 6 298 3.2 8.0 0.03 2.31 1.14 98 1008.4
20260506151556 6 331 1.6 4.8 0.05 2.31 1.14 99 1008.3
20260506150056 6 317 1.6 6.4 0.08 2.31 1.14 99 1008.1
20260506144554 6 24 1.6 6.4 0.08 2.31 1.14 98 1007.8
20260506143053 6 32 0.0 4.8 0.08 2.29 1.12 99 1007.6
20260506141552 6 82 0.0 6.4 0.10 2.26 1.09 99 1007.8
20260506140053 6 52 1.6 6.4 0.15 2.24 1.07 98 1007.9
20260506134550 5 59 0.0 6.4 0.23 2.24 1.07 98 1008.0
20260506133050 5 26 1.6 6.4 0.28 2.21 1.04 98 1007.9
20260506131553 5 36 3.2 8.0 0.30 2.16 0.99 98 1008.0
20260506130101 5 351 1.6 6.4 0.28 2.08 0.91 98 1008.1
20260506124553 5 64 3.2 9.7 0.23 2.01 0.84 98 1008.0
20260506123046 5 343 0.0 8.0 0.15 1.93 0.76 98 1008.0
20260506121544 5 40 1.6 6.4 0.10 1.85 0.69 98 1007.9
20260506120043 5 44 4.8 14.5 0.10 1.80 0.64 98 1007.8
20260506114542 5 321 3.2 8.0 0.15 1.78 0.61 98 1007.8
20260506113050 5 38 1.6 9.7 0.18 1.78 0.61 98 1008.0
20260506111542 6 47 0.0 3.2 0.18 1.75 0.58 98 1008.2
20260506110051 6 55 3.2 8.0 0.15 1.70 0.53 98 1008.3
20260506104547 6 57 1.6 4.8 0.10 1.63 0.46 98 1008.2
20260506103047 5 84 1.6 8.0 0.13 1.60 0.43 98 1008.0
20260506101549 6 53 1.6 6.4 0.10 1.57 0.41 98 1008.0
20260506100057 6 87 1.6 6.4 0.13 1.55 0.38 98 1007.7
20260506094536 6 73 1.6 9.7 0.13 1.52 0.36 98 1007.8
20260506093042 6 71 0.0 6.4 0.10 1.45 0.30 98 1008.1
20260506091535 6 65 1.6 4.8 0.15 1.45 0.30 98 1008.5
20260506090032 6 92 0.0 4.8 0.15 1.45 0.25 98 1008.6
20260506084531 6 338 1.6 8.0 0.18 1.42 0.23 98 1008.8
20260506083032 6 63 1.6 11.3 0.15 1.42 0.20 97 1008.4
20260506081533 6 53 6.4 14.5 0.10 1.37 0.15 97 1008.4
20260506073034 7 46 1.6 6.4 0.00 1.27 0.05 98 1008.2
20260506071517 8 49 1.6 6.4 0.00 1.27 0.05 98 1007.9
20260506061508 8 84 0.0 3.2 0.03 1.27 0.05 98 1008.8
20260506044503 8 115 0.0 3.2 0.03 1.24 0.03 97 1009.5
20260506043110 8 115 0.0 3.2 0.10 1.24 0.03 97 1009.9
20260506041604 8 132 0.0 3.2 0.18 1.24 0.03 97 1009.6
20260506040055 8 132 0.0 3.2 0.20 1.22 1.22 97 1009.6
20260506034625 8 132 0.0 3.2 0.28 1.22 1.22 97 1009.7
20260506033101 8 132 0.0 3.2 0.23 1.14 1.14 96 1010.2
20260506031552 8 269 0.0 3.2 0.20 1.07 1.07 96 1009.7
20260506030052 8 269 0.0 3.2 0.23 1.02 1.02 96 1010.1
20260506024551 8 269 0.0 1.6 0.23 0.94 0.94 96 1010.4
20260506023108 8 269 0.0 3.2 0.23 0.91 0.91 95 1010.4
20260506021550 8 269 0.0 1.6 0.23 0.86 0.86 95 1010.5
20260506020049 8 269 1.6 6.4 0.18 0.79 0.79 94 1010.2
20260506014548 8 5 3.2 6.4 0.10 0.71 0.71 93 1009.5
20260506013048 8 5 0.0 3.2 0.10 0.69 0.69 93 1009.8
20260506011549 8 5 0.0 0.0 0.13 0.64 0.64 92 1009.9
20260506010051 8 5 0.0 3.2 0.13 0.61 0.61 90 1009.6
20260506004600 9 5 1.6 6.4 0.13 0.61 0.61 88 1009.6
20260506003045 10 343 3.2 8.0 0.10 0.58 0.58 83 1009.6
20260506001535 11 290 9.7 16.1 0.00 0.48 0.48 74 1009.6